Regional Weather Roundup
Issued by NWS

Home | Current Version | Previous Version | Text Only | Print | Product List | Glossary Off
Versions: 1 2 3 4 5 6 7 8 9 10 11 12 13 14 15 16 17 18 19 20 21 22 23 24 25 26 27

000
ASUS45 KCYS 222010
RWRWY

WYOMING REGIONAL WEATHER ROUNDUP
NATIONAL WEATHER SERVICE CHEYENNE WY
200 PM MDT TUE APR 22 2014

NOTE:  "FAIR" INDICATES FEW OR NO CLOUDS BELOW 12,000 FEET
WITH NO SIGNIFICANT WEATHER AND/OR OBSTRUCTIONS TO VISIBILITY.

WYZ001-222100-
YELLOWSTONE NATIONAL PARK

CITY           SKY/WX    TMP DP  RH WIND       PRES   REMARKS
LK YELLOWSTONE   N/A     48  31  51 VRB5      29.76F
W YELLOWSTONE  NOT AVBL

$$
WYZ002>013-054>058-071-098>099-222100-
NORTHERN WYOMING

CITY           SKY/WX    TMP DP  RH WIND       PRES   REMARKS
JACKSON        SUNNY     57  36  44 W9        29.70F
CODY           PTSUNNY   66  34  30 SE9G20    29.64F
GREYBULL       MOSUNNY   73  29  19 S15       29.62F
WORLAND        MOSUNNY   71  35  26 SE9       29.63F
SHERIDAN         N/A     63  32  31 S29G36      N/A
BUFFALO        CLOUDY    66  33  29 VRB5      29.71F
GILLETTE       CLOUDY    69  41  36 S14       29.70F
HULETT         MOCLDY    70  34  26 MISG      29.73
NEWCASTLE      FAIR      66  34  30 S9        29.76

$$
WYZ014>020-022>026-101>103-222100-
CENTRAL WYOMING

CITY           SKY/WX    TMP DP  RH WIND       PRES   REMARKS
BIG PINEY      CLOUDY    57  35  43 S9        29.78F
PINEDALE       CLOUDY    55  32  41 SW14G22   29.79F
DUBOIS         FAIR      61  32  33 E9        29.75F
LANDER         PTSUNNY   67  32  27 S29G41    29.67F
RIVERTON       PTSUNNY   68  27  21 E7        29.69F
CASPER         CLOUDY    69  33  26 SW9       29.72F
DOUGLAS        LGT RAIN  63  39  41 E14       29.76F

$$
WYZ021-027>030-104>119-222100-
SOUTHERN WYOMING

CITY           SKY/WX    TMP DP  RH WIND       PRES   REMARKS
EVANSTON       PTSUNNY   62  27  26 SW24G32   29.76F
KEMMERER       CLOUDY    61  23  23 SW21G31   29.78F
FORT BRIDGER   FAIR      68  24  19 SW21G29   29.79F
ROCK SPRINGS   CLOUDY    65  26  23 S29G39    29.77F
DIXON          MOCLDY    67  31  25 SW20G35   29.85F
RAWLINS        LGT RAIN  64  33  31 S23G32    29.82F
SARATOGA       MOCLDY    63  32  31 SE14G23   29.87F
LARAMIE        CLOUDY    63  30  28 SW10      29.89F
CHEYENNE       CLOUDY    69  33  26 S13       29.87F
TORRINGTON     PTSUNNY   73  41  31 SE9       29.75F
PINE BLUFFS    FAIR      77  32  19 S21       29.83F

$$



USA.gov is the U.S. government's official web portal to all federal, state and local government web resources and services.